QPF
0.00 0.00 0.00 0.01 0.01 0.01 0.02 0.04 0.06 0.07 0.08 0.06 0.04 0.04 0.05 0.09 0.10 0.14 0.09 0.06 0.04 0.03 0.05 0.07 0.06 0.06 0.06 0.05 0.04 0.03 0.02 0.01 0.01 0.01 0.01 0.01 0.02 0.02 0.03 0.05 0.05 0.02 0.01
0.01 0.01 0.01 0.02 0.02 0.02 0.02 0.02 0.04 0.06 0.08 0.07 0.04 0.05 0.05 0.05 0.07 0.12 0.08 0.05 0.01 0.01 0.01 0.03 0.04 0.05 0.06 0.04 0.03 0.02 0.01 0.01 0.01 0.00 0.01 0.01 0.02 0.03 0.04 0.04 0.04 0.02 0.00
0.01 0.02 0.02 0.03 0.04 0.04 0.03 0.03 0.05 0.06 0.05 0.04 0.02 0.03 0.02 0.02 0.02 0.04 0.04 0.02 0.00 0.00 0.00 0.01 0.02 0.02 0.03 0.03 0.03 0.02 0.01 0.01 0.00 0.00 0.00 0.01 0.01 0.02 0.03 0.04 0.05 0.04 0.01
0.02 0.05 0.05 0.05 0.08 0.06 0.05 0.06 0.07 0.05 0.05 0.05 0.04 0.02 0.01 0.01 0.00 0.01 0.01 0.01 0.01 0.00 0.00 0.00 0.01 0.02 0.02 0.02 0.02 0.02 0.01 0.01 0.00 0.00 0.01 0.01 0.01 0.01 0.02 0.02 0.03 0.03 0.01
0.03 0.08 0.08 0.10 0.11 0.08 0.09 0.07 0.06 0.06 0.05 0.05 0.04 0.03 0.01 0.01 0.00 0.00 0.00 0.00 0.00 0.00 0.00 0.01 0.00 0.01 0.02 0.03 0.03 0.02 0.01 0.01 0.00 0.00 0.01 0.01 0.01 0.01 0.01 0.01 0.02 0.03 0.01
0.09 0.13 0.13 0.14 0.12 0.12 0.11 0.09 0.06 0.05 0.04 0.04 0.02 0.01 0.01 0.00 0.00 0.00 0.00 0.00 0.00 0.00 0.00 0.00 0.02 0.01 0.00 0.02 0.03 0.03 0.02 0.01 0.01 0.01 0.01 0.01 0.02 0.02 0.01 0.01 0.01 0.02 0.01
0.19 0.20 0.16 0.17 0.13 0.11 0.08 0.06 0.04 0.02 0.02 0.03 0.02 0.01 0.00 0.00 0.00 0.00 0.00 0.00 0.00 0.00 0.00 0.01 0.01 0.02 0.02 0.00 0.01 0.02 0.03 0.03 0.02 0.01 0.01 0.01 0.01 0.01 0.01 0.00 0.01 0.01 0.01
0.34 0.30 0.24 0.18 0.11 0.06 0.03 0.02 0.01 0.01 0.01 0.01 0.03 0.04 0.01 0.00 0.00 0.00 0.00 0.00 0.00 0.00 0.01 0.01 0.02 0.08 0.06 0.02 0.02 0.02 0.01 0.03 0.03 0.03 0.03 0.02 0.01 0.01 0.01 0.01 0.01 0.01 0.01
0.60 0.51 0.38 0.22 0.10 0.04 0.02 0.01 0.01 0.01 0.01 0.01 0.04 0.07 0.05 0.02 0.01 0.00 0.00 0.01 0.02 0.03 0.02 0.03 0.03 0.05 0.06 0.04 0.04 0.05 0.03 0.01 0.02 0.04 0.04 0.03 0.01 0.00 0.01 0.01 0.01 0.01 0.01
0.70 0.55 0.37 0.21 0.08 0.03 0.02 0.01 0.00 0.01 0.02 0.02 0.03 0.06 0.09 0.09 0.08 0.03 0.01 0.02 0.04 0.04 0.05 0.03 0.02 0.03 0.04 0.03 0.03 0.09 0.09 0.03 0.01 0.02 0.04 0.04 0.03 0.01 0.01 0.01 0.01 0.02 0.02
0.64 0.49 0.32 0.18 0.08 0.03 0.01 0.00 0.00 0.01 0.02 0.02 0.04 0.04 0.06 0.09 0.10 0.08 0.03 0.04 0.06 0.06 0.05 0.04 0.02 0.02 0.01 0.01 0.03 0.04 0.09 0.09 0.07 0.02 0.01 0.02 0.03 0.02 0.01 0.01 0.01 0.03 0.06
0.38 0.27 0.18 0.11 0.06 0.04 0.02 0.01 0.01 0.01 0.01 0.02 0.04 0.06 0.07 0.09 0.12 0.13 0.10 0.10 0.10 0.08 0.07 0.04 0.02 0.02 0.02 0.01 0.01 0.02 0.04 0.05 0.06 0.05 0.03 0.02 0.01 0.01 0.01 0.01 0.01 0.02 0.08
0.24 0.17 0.12 0.09 0.07 0.05 0.02 0.01 0.01 0.01 0.01 0.02 0.03 0.05 0.07 0.09 0.12 0.14 0.15 0.15 0.13 0.12 0.09 0.06 0.04 0.03 0.02 0.02 0.04 0.02 0.03 0.04 0.05 0.04 0.03 0.02 0.01 0.00 0.00 0.00 0.01 0.02 0.08
0.16 0.12 0.09 0.08 0.07 0.05 0.02 0.01 0.01 0.01 0.01 0.02 0.02 0.04 0.06 0.06 0.07 0.10 0.12 0.12 0.13 0.14 0.12 0.09 0.05 0.03 0.03 0.05 0.05 0.04 0.06 0.06 0.04 0.02 0.02 0.01 0.01 0.00 0.00 0.00 0.00 0.02 0.08
0.06 0.05 0.05 0.05 0.05 0.03 0.02 0.01 0.01 0.01 0.02 0.04 0.06 0.06 0.06 0.06 0.05 0.05 0.05 0.05 0.05 0.06 0.05 0.05 0.04 0.03 0.03 0.05 0.06 0.07 0.10 0.06 0.03 0.01 0.01 0.01 0.00 0.00 0.00 0.00 0.00 0.01 0.04
0.02 0.02 0.02 0.02 0.02 0.01 0.01 0.01 0.01 0.01 0.03 0.05 0.06 0.07 0.06 0.05 0.04 0.03 0.03 0.04 0.04 0.05 0.04 0.04 0.03 0.03 0.03 0.03 0.05 0.08 0.09 0.06 0.03 0.01 0.01 0.00 0.00 0.00 0.00 0.00 0.00 0.01 0.03
0.02 0.01 0.01 0.01 0.01 0.01 0.00 0.01 0.01 0.01 0.03 0.03 0.02 0.03 0.03 0.02 0.02 0.01 0.02 0.03 0.05 0.06 0.06 0.05 0.05 0.04 0.04 0.05 0.05 0.07 0.08 0.06 0.04 0.03 0.02 0.01 0.01 0.00 0.01 0.01 0.02 0.03 0.06
0.02 0.01 0.01 0.01 0.00 0.00 0.01 0.01 0.01 0.01 0.02 0.02 0.01 0.01 0.01 0.01 0.01 0.01 0.01 0.02 0.03 0.05 0.06 0.07 0.07 0.07 0.07 0.07 0.07 0.07 0.09 0.09 0.09 0.09 0.06 0.03 0.02 0.02 0.02 0.03 0.05 0.08 0.13
0.01 0.00 0.00 0.00 0.00 0.01 0.01 0.02 0.01 0.01 0.01 0.00 0.00 0.00 0.00 0.01 0.01 0.01 0.01 0.01 0.01 0.02 0.05 0.07 0.09 0.11 0.11 0.10 0.08 0.10 0.12 0.12 0.11 0.09 0.08 0.06 0.05 0.03 0.03 0.03 0.06 0.11 0.18
0.00 0.00 0.00 0.00 0.01 0.01 0.01 0.01 0.00 0.00 0.00 0.00 0.00 0.00 0.00 0.00 0.00 0.00 0.00 0.00 0.00 0.01 0.04 0.08 0.11 0.11 0.10 0.09 0.09 0.11 0.15 0.18 0.17 0.14 0.12 0.09 0.07 0.04 0.02 0.02 0.04 0.08 0.17
0.00 0.00 0.00 0.00 0.00 0.00 0.00 0.00 0.00 0.00 0.00 0.00 0.00 0.00 0.00 0.00 0.00 0.00 0.00 0.00 0.01 0.02 0.03 0.05 0.05 0.05 0.04 0.03 0.04 0.08 0.15 0.25 0.26 0.22 0.17 0.11 0.08 0.05 0.02 0.01 0.02 0.05 0.12
0.00 0.00 0.00 0.00 0.00 0.00 0.00 0.00 0.00 0.00 0.00 0.00 0.00 0.00 0.00 0.00 0.00 0.00 0.00 0.00 0.00 0.01 0.01 0.02 0.01 0.01 0.02 0.01 0.02 0.06 0.12 0.22 0.33 0.38 0.32 0.24 0.16 0.11 0.07 0.04 0.01 0.02 0.06
0.00 0.00 0.00 0.00 0.00 0.00 0.00 0.00 0.00 0.00 0.00 0.00 0.00 0.00 0.00 0.00 0.00 0.00 0.00 0.00 0.00 0.00 0.00 0.01 0.01 0.01 0.01 0.01 0.01 0.03 0.07 0.15 0.32 0.47 0.53 0.58 0.42 0.24 0.15 0.08 0.02 0.00 0.01
0.01 0.00 0.00 0.00 0.00 0.00 0.00 0.00 0.00 0.00 0.00 0.00 0.00 0.00 0.00 0.00 0.00 0.00 0.00 0.01 0.00 0.00 0.00 0.00 0.01 0.01 0.00 0.01 0.02 0.02 0.03 0.06 0.15 0.30 0.43 0.58 0.61 0.51 0.34 0.20 0.09 0.03 0.01
0.01 0.00 0.00 0.00 0.00 0.00 0.00 0.00 0.00 0.00 0.00 0.00 0.00 0.00 0.00 0.00 0.00 0.00 0.00 0.00 0.00 0.00 0.00 0.00 0.00 0.00 0.00 0.00 0.01 0.01 0.01 0.02 0.04 0.10 0.23 0.41 0.53 0.55 0.52 0.40 0.23 0.12 0.07
0.01 0.00 0.00 0.00 0.00 0.00 0.00 0.00 0.00 0.00 0.00 0.00 0.00 0.00 0.00 0.00 0.00 0.00 0.00 0.00 0.00 0.01 0.00 0.00 0.00 0.00 0.00 0.00 0.00 0.00 0.01 0.01 0.02 0.03 0.06 0.17 0.31 0.43 0.55 0.55 0.45 0.32 0.19
MSLP
1014.14 1014.17 1014.17 1014.13 1014.09 1014.04 1014.00 1013.97 1013.94 1013.88 1013.79 1013.64 1013.46 1013.25 1013.06 1012.90 1012.83 1012.85 1012.96 1013.15 1013.38 1013.62 1013.82 1013.96 1014.03 1014.05 1014.03 1014.02 1014.05 1014.13 1014.28 1014.49 1014.75 1015.02 1015.29 1015.54 1015.78 1015.99 1016.19 1016.41 1016.65 1016.92 1017.23
1013.84 1013.88 1013.88 1013.84 1013.79 1013.73 1013.69 1013.65 1013.60 1013.54 1013.44 1013.29 1013.09 1012.87 1012.64 1012.45 1012.32 1012.28 1012.33 1012.47 1012.66 1012.88 1013.09 1013.26 1013.39 1013.46 1013.51 1013.56 1013.63 1013.74 1013.91 1014.13 1014.38 1014.65 1014.91 1015.15 1015.37 1015.56 1015.75 1015.95 1016.18 1016.45 1016.76
1013.65 1013.69 1013.68 1013.64 1013.58 1013.52 1013.47 1013.42 1013.37 1013.30 1013.20 1013.04 1012.83 1012.57 1012.30 1012.03 1011.82 1011.69 1011.65 1011.70 1011.84 1012.02 1012.23 1012.44 1012.61 1012.76 1012.89 1013.01 1013.14 1013.30 1013.50 1013.73 1013.99 1014.25 1014.49 1014.72 1014.91 1015.08 1015.25 1015.43 1015.64 1015.91 1016.24
1013.54 1013.58 1013.57 1013.52 1013.45 1013.38 1013.32 1013.26 1013.21 1013.14 1013.03 1012.86 1012.63 1012.33 1012.00 1011.65 1011.34 1011.09 1010.93 1010.89 1010.94 1011.07 1011.27 1011.49 1011.71 1011.93 1012.13 1012.33 1012.53 1012.74 1012.98 1013.23 1013.50 1013.76 1014.00 1014.20 1014.38 1014.53 1014.67 1014.84 1015.04 1015.31 1015.64
1013.49 1013.52 1013.50 1013.45 1013.37 1013.28 1013.20 1013.13 1013.07 1012.99 1012.87 1012.70 1012.44 1012.11 1011.72 1011.29 1010.88 1010.52 1010.24 1010.08 1010.04 1010.10 1010.26 1010.47 1010.72 1010.99 1011.25 1011.51 1011.77 1012.04 1012.32 1012.60 1012.89 1013.15 1013.39 1013.60 1013.77 1013.91 1014.04 1014.19 1014.39 1014.65 1015.00
1013.44 1013.47 1013.44 1013.38 1013.28 1013.18 1013.08 1012.99 1012.91 1012.82 1012.70 1012.51 1012.25 1011.89 1011.46 1010.97 1010.48 1010.02 1009.64 1009.36 1009.22 1009.20 1009.30 1009.48 1009.72 1010.00 1010.30 1010.60 1010.91 1011.22 1011.54 1011.86 1012.17 1012.46 1012.71 1012.93 1013.10 1013.24 1013.37 1013.52 1013.70 1013.97 1014.31
1013.34 1013.38 1013.35 1013.28 1013.17 1013.05 1012.93 1012.82 1012.72 1012.61 1012.48 1012.29 1012.03 1011.67 1011.23 1010.71 1010.17 1009.65 1009.19 1008.83 1008.59 1008.49 1008.50 1008.63 1008.83 1009.09 1009.38 1009.70 1010.02 1010.36 1010.71 1011.06 1011.40 1011.72 1012.00 1012.24 1012.43 1012.58 1012.71 1012.85 1013.03 1013.28 1013.63
1013.16 1013.21 1013.20 1013.12 1013.01 1012.87 1012.73 1012.59 1012.47 1012.36 1012.22 1012.04 1011.79 1011.46 1011.04 1010.54 1010.00 1009.45 1008.95 1008.53 1008.22 1008.04 1007.97 1008.02 1008.15 1008.35 1008.61 1008.90 1009.21 1009.56 1009.92 1010.29 1010.67 1011.02 1011.34 1011.60 1011.81 1011.97 1012.10 1012.22 1012.39 1012.62 1012.94
1012.87 1012.94 1012.95 1012.89 1012.78 1012.64 1012.48 1012.33 1012.19 1012.07 1011.93 1011.77 1011.56 1011.27 1010.90 1010.46 1009.96 1009.44 1008.94 1008.51 1008.15 1007.90 1007.76 1007.71 1007.76 1007.88 1008.06 1008.30 1008.58 1008.90 1009.27 1009.65 1010.05 1010.43 1010.77 1011.06 1011.27 1011.43 1011.55 1011.65 1011.78 1011.98 1012.28
1012.45 1012.56 1012.60 1012.57 1012.48 1012.35 1012.19 1012.03 1011.88 1011.75 1011.63 1011.50 1011.33 1011.11 1010.81 1010.45 1010.04 1009.58 1009.13 1008.71 1008.34 1008.05 1007.84 1007.72 1007.67 1007.70 1007.79 1007.95 1008.18 1008.47 1008.81 1009.19 1009.59 1009.98 1010.33 1010.62 1010.83 1010.97 1011.06 1011.12 1011.20 1011.35 1011.60
1011.94 1012.09 1012.17 1012.18 1012.12 1012.01 1011.86 1011.70 1011.56 1011.43 1011.32 1011.22 1011.10 1010.95 1010.75 1010.48 1010.17 1009.80 1009.42 1009.05 1008.70 1008.39 1008.14 1007.95 1007.82 1007.76 1007.77 1007.85 1008.00 1008.24 1008.54 1008.89 1009.28 1009.66 1010.00 1010.27 1010.46 1010.56 1010.59 1010.59 1010.61 1010.70 1010.89
1011.38 1011.57 1011.69 1011.74 1011.72 1011.63 1011.50 1011.36 1011.22 1011.11 1011.01 1010.94 1010.87 1010.79 1010.67 1010.50 1010.28 1010.02 1009.72 1009.41 1009.09 1008.80 1008.53 1008.29 1008.11 1007.97 1007.90 1007.91 1008.00 1008.17 1008.42 1008.73 1009.08 1009.42 1009.73 1009.96 1010.09 1010.14 1010.10 1010.03 1009.98 1010.00 1010.14
1010.86 1011.06 1011.21 1011.29 1011.30 1011.24 1011.14 1011.02 1010.90 1010.79 1010.72 1010.67 1010.64 1010.60 1010.55 1010.45 1010.32 1010.14 1009.93 1009.68 1009.42 1009.15 1008.88 1008.63 1008.41 1008.23 1008.10 1008.04 1008.07 1008.18 1008.37 1008.63 1008.92 1009.21 1009.46 1009.62 1009.69 1009.67 1009.56 1009.42 1009.29 1009.25 1009.33
1010.44 1010.63 1010.79 1010.88 1010.91 1010.88 1010.80 1010.70 1010.60 1010.51 1010.46 1010.43 1010.41 1010.40 1010.39 1010.34 1010.27 1010.15 1010.00 1009.81 1009.59 1009.36 1009.11 1008.87 1008.64 1008.43 1008.27 1008.17 1008.14 1008.20 1008.33 1008.53 1008.75 1008.97 1009.14 1009.24 1009.23 1009.13 1008.95 1008.75 1008.56 1008.47 1008.52
1010.18 1010.34 1010.48 1010.56 1010.59 1010.58 1010.52 1010.44 1010.37 1010.30 1010.26 1010.23 1010.23 1010.23 1010.22 1010.19 1010.14 1010.05 1009.93 1009.78 1009.61 1009.41 1009.19 1008.97 1008.74 1008.54 1008.36 1008.24 1008.17 1008.18 1008.25 1008.38 1008.53 1008.67 1008.76 1008.78 1008.71 1008.55 1008.32 1008.07 1007.85 1007.73 1007.77
1010.12 1010.23 1010.32 1010.37 1010.39 1010.38 1010.34 1010.29 1010.23 1010.19 1010.16 1010.14 1010.13 1010.12 1010.10 1010.06 1010.00 1009.91 1009.80 1009.67 1009.51 1009.34 1009.15 1008.95 1008.75 1008.56 1008.38 1008.24 1008.15 1008.11 1008.13 1008.19 1008.26 1008.33 1008.35 1008.30 1008.18 1007.97 1007.72 1007.45 1007.23 1007.12 1007.16
1010.26 1010.30 1010.33 1010.35 1010.34 1010.32 1010.29 1010.26 1010.24 1010.22 1010.21 1010.20 1010.18 1010.15 1010.11 1010.04 1009.95 1009.84 1009.71 1009.57 1009.42 1009.26 1009.09 1008.91 1008.73 1008.55 1008.38 1008.23 1008.11 1008.04 1008.00 1007.99 1008.00 1007.99 1007.95 1007.86 1007.71 1007.49 1007.24 1006.99 1006.80 1006.72 1006.79
1010.54 1010.52 1010.50 1010.47 1010.44 1010.42 1010.40 1010.39 1010.40 1010.41 1010.42 1010.42 1010.40 1010.36 1010.28 1010.18 1010.06 1009.91 1009.75 1009.59 1009.43 1009.26 1009.10 1008.94 1008.77 1008.60 1008.43 1008.27 1008.13 1008.01 1007.92 1007.85 1007.80 1007.74 1007.65 1007.53 1007.37 1007.17 1006.95 1006.75 1006.62 1006.59 1006.71
1010.89 1010.83 1010.77 1010.71 1010.67 1010.64 1010.64 1010.66 1010.70 1010.74 1010.78 1010.80 1010.79 1010.74 1010.65 1010.52 1010.36 1010.18 1009.99 1009.80 1009.61 1009.44 1009.27 1009.10 1008.94 1008.76 1008.59 1008.41 1008.24 1008.09 1007.95 1007.83 1007.72 1007.61 1007.50 1007.37 1007.22 1007.06 1006.90 1006.77 1006.71 1006.75 1006.93
1011.23 1011.16 1011.09 1011.03 1010.98 1010.97 1010.99 1011.04 1011.11 1011.19 1011.26 1011.30 1011.30 1011.26 1011.17 1011.02 1010.84 1010.64 1010.42 1010.21 1010.00 1009.81 1009.62 1009.44 1009.26 1009.07 1008.88 1008.68 1008.48 1008.28 1008.10 1007.93 1007.78 1007.64 1007.51 1007.39 1007.27 1007.16 1007.07 1007.02 1007.04 1007.15 1007.38
1011.49 1011.45 1011.40 1011.36 1011.35 1011.36 1011.41 1011.48 1011.58 1011.69 1011.79 1011.86 1011.88 1011.85 1011.76 1011.62 1011.44 1011.22 1010.99 1010.76 1010.54 1010.32 1010.12 1009.92 1009.72 1009.51 1009.29 1009.05 1008.82 1008.58 1008.36 1008.16 1007.97 1007.82 1007.68 1007.58 1007.49 1007.44 1007.42 1007.44 1007.53 1007.71 1007.98
1011.63 1011.65 1011.67 1011.68 1011.71 1011.76 1011.84 1011.94 1012.06 1012.19 1012.30 1012.39 1012.43 1012.42 1012.35 1012.23 1012.05 1011.85 1011.62 1011.38 1011.15 1010.92 1010.69 1010.47 1010.24 1010.00 1009.75 1009.48 1009.21 1008.94 1008.69 1008.46 1008.25 1008.09 1007.96 1007.87 1007.82 1007.81 1007.85 1007.94 1008.09 1008.31 1008.60
1011.65 1011.77 1011.87 1011.96 1012.04 1012.14 1012.25 1012.37 1012.50 1012.63 1012.75 1012.85 1012.90 1012.90 1012.85 1012.75 1012.60 1012.41 1012.20 1011.97 1011.73 1011.49 1011.25 1011.00 1010.75 1010.47 1010.19 1009.90 1009.60 1009.30 1009.03 1008.78 1008.57 1008.40 1008.28 1008.21 1008.19 1008.21 1008.28 1008.41 1008.59 1008.82 1009.12
1011.59 1011.82 1012.02 1012.19 1012.35 1012.49 1012.62 1012.75 1012.88 1013.01 1013.11 1013.20 1013.25 1013.26 1013.22 1013.14 1013.02 1012.86 1012.67 1012.46 1012.23 1011.98 1011.73 1011.46 1011.18 1010.88 1010.57 1010.25 1009.93 1009.62 1009.33 1009.07 1008.86 1008.70 1008.58 1008.52 1008.51 1008.55 1008.64 1008.77 1008.95 1009.18 1009.46
1011.50 1011.84 1012.14 1012.40 1012.62 1012.81 1012.96 1013.10 1013.21 1013.31 1013.39 1013.45 1013.48 1013.49 1013.46 1013.40 1013.30 1013.17 1013.01 1012.81 1012.60 1012.36 1012.10 1011.82 1011.51 1011.19 1010.86 1010.52 1010.19 1009.87 1009.58 1009.32 1009.11 1008.95 1008.84 1008.78 1008.77 1008.80 1008.87 1008.98 1009.14 1009.33 1009.56
1011.42 1011.86 1012.25 1012.60 1012.88 1013.11 1013.29 1013.42 1013.51 1013.58 1013.62 1013.65 1013.65 1013.64 1013.61 1013.56 1013.48 1013.38 1013.24 1013.07 1012.87 1012.64 1012.38 1012.09 1011.78 1011.44 1011.09 1010.74 1010.40 1010.08 1009.79 1009.53 1009.32 1009.16 1009.05 1008.98 1008.95 1008.95 1008.99 1009.06 1009.17 1009.30 1009.48
Thickness
5783 5783 5780 5778 5778 5779 5778 5778 5778 5777 5776 5776 5776 5777 5776 5774 5772 5772 5770 5766 5763 5761 5759 5758 5757 5756 5755 5754 5752 5750 5748 5747 5745 5744 5742 5740 5737 5735 5733 5730 5728 5725 5722
5781 5779 5777 5775 5776 5776 5777 5776 5777 5776 5776 5776 5775 5775 5774 5775 5774 5771 5771 5771 5767 5764 5762 5760 5758 5757 5756 5754 5753 5751 5749 5747 5745 5743 5742 5740 5738 5736 5734 5732 5730 5727 5723
5777 5775 5774 5774 5775 5774 5773 5772 5773 5773 5773 5774 5774 5775 5775 5774 5774 5773 5771 5770 5771 5768 5765 5762 5760 5758 5756 5755 5753 5751 5749 5747 5744 5742 5741 5739 5738 5736 5735 5733 5730 5728 5725
5773 5770 5771 5772 5772 5770 5770 5769 5769 5769 5770 5770 5771 5773 5774 5774 5773 5773 5772 5771 5770 5770 5768 5765 5761 5759 5757 5754 5752 5750 5748 5746 5744 5741 5740 5738 5737 5736 5734 5733 5731 5728 5725
5768 5765 5765 5765 5764 5764 5764 5764 5767 5764 5764 5764 5767 5769 5771 5772 5773 5773 5773 5772 5770 5768 5768 5767 5762 5760 5757 5754 5752 5750 5748 5746 5743 5741 5739 5737 5736 5735 5733 5732 5730 5728 5726
5760 5758 5757 5756 5756 5756 5755 5755 5756 5757 5757 5758 5762 5765 5767 5770 5771 5771 5771 5772 5772 5771 5769 5767 5764 5761 5757 5754 5752 5750 5748 5745 5743 5740 5738 5736 5735 5734 5733 5731 5729 5728 5725
5749 5746 5746 5746 5746 5746 5747 5748 5749 5751 5751 5754 5753 5757 5765 5769 5769 5768 5768 5768 5770 5771 5769 5767 5764 5763 5761 5754 5752 5750 5748 5745 5742 5740 5737 5735 5734 5733 5732 5731 5729 5727 5725
5736 5734 5731 5733 5735 5736 5737 5738 5740 5741 5744 5746 5744 5745 5751 5758 5764 5767 5764 5762 5762 5764 5765 5764 5761 5758 5757 5757 5754 5749 5746 5744 5742 5739 5736 5734 5733 5732 5731 5730 5729 5727 5725
5725 5723 5719 5720 5722 5725 5728 5730 5732 5732 5734 5738 5740 5736 5737 5743 5748 5755 5756 5755 5753 5753 5756 5757 5756 5754 5751 5751 5752 5748 5744 5742 5740 5738 5735 5733 5731 5730 5730 5729 5729 5727 5726
5717 5714 5710 5710 5711 5714 5719 5723 5728 5728 5728 5731 5734 5733 5732 5731 5727 5735 5745 5747 5746 5744 5746 5747 5749 5748 5746 5745 5745 5743 5740 5738 5736 5734 5732 5730 5728 5728 5728 5728 5728 5727 5726
5710 5705 5702 5702 5701 5707 5712 5715 5718 5720 5725 5726 5726 5727 5726 5724 5723 5719 5727 5732 5735 5738 5739 5740 5741 5741 5740 5738 5738 5738 5734 5732 5731 5729 5727 5726 5725 5724 5724 5725 5726 5726 5725
5703 5700 5699 5696 5698 5702 5704 5707 5710 5714 5717 5718 5719 5719 5717 5715 5715 5714 5715 5719 5721 5727 5730 5731 5733 5732 5732 5732 5731 5729 5727 5725 5724 5723 5721 5720 5720 5719 5720 5722 5723 5724 5724
5695 5693 5694 5692 5693 5695 5697 5701 5704 5707 5710 5710 5711 5712 5710 5709 5709 5708 5708 5710 5713 5717 5719 5721 5722 5722 5721 5721 5721 5720 5719 5718 5717 5716 5714 5714 5713 5713 5715 5717 5719 5721 5722
5690 5688 5687 5686 5686 5688 5691 5694 5699 5701 5702 5703 5702 5702 5701 5701 5702 5702 5702 5703 5704 5707 5707 5707 5711 5711 5710 5711 5710 5710 5712 5710 5709 5708 5706 5706 5707 5708 5710 5712 5715 5718 5719
5682 5680 5681 5680 5679 5681 5683 5686 5691 5692 5693 5694 5694 5694 5694 5694 5695 5696 5697 5697 5696 5695 5696 5697 5697 5699 5700 5700 5700 5702 5702 5700 5700 5700 5700 5700 5700 5702 5705 5708 5712 5714 5716
5670 5670 5670 5671 5672 5672 5675 5678 5682 5684 5684 5684 5685 5685 5685 5687 5687 5689 5690 5690 5689 5688 5686 5689 5688 5689 5688 5690 5690 5692 5692 5690 5691 5692 5692 5693 5694 5696 5699 5704 5709 5711 5712
5656 5658 5659 5661 5663 5664 5668 5670 5675 5675 5675 5676 5676 5676 5676 5676 5678 5681 5682 5682 5682 5681 5679 5683 5683 5682 5680 5679 5681 5682 5682 5683 5684 5684 5684 5684 5686 5689 5693 5698 5703 5705 5707
5644 5647 5649 5652 5655 5657 5660 5663 5665 5665 5665 5665 5665 5665 5665 5667 5666 5669 5670 5672 5673 5672 5671 5671 5674 5674 5673 5672 5673 5673 5673 5674 5675 5675 5675 5676 5677 5680 5684 5689 5694 5698 5700
5633 5637 5640 5643 5646 5649 5651 5653 5654 5654 5654 5654 5653 5653 5654 5655 5655 5657 5659 5662 5664 5666 5665 5663 5664 5664 5665 5665 5665 5666 5666 5666 5667 5667 5667 5667 5668 5671 5675 5679 5684 5688 5690
5625 5628 5631 5634 5637 5640 5642 5643 5643 5642 5642 5641 5641 5642 5643 5643 5643 5645 5648 5650 5652 5654 5655 5655 5654 5655 5655 5657 5657 5656 5657 5658 5659 5660 5659 5659 5660 5663 5665 5668 5673 5676 5678
5619 5620 5623 5626 5629 5631 5633 5632 5632 5631 5630 5630 5630 5630 5628 5627 5626 5629 5634 5636 5639 5640 5643 5643 5643 5643 5643 5644 5645 5646 5648 5651 5652 5651 5652 5653 5654 5657 5658 5659 5661 5663 5665
5613 5614 5616 5618 5620 5620 5616 5619 5622 5621 5620 5620 5620 5620 5620 5619 5618 5617 5617 5617 5619 5624 5626 5628 5629 5628 5627 5631 5634 5636 5637 5639 5639 5640 5642 5644 5646 5647 5650 5652 5651 5651 5652
5607 5608 5610 5610 5609 5605 5605 5607 5609 5611 5610 5609 5609 5609 5611 5609 5610 5612 5609 5607 5608 5608 5608 5613 5613 5612 5617 5619 5622 5627 5626 5626 5625 5628 5632 5632 5635 5637 5639 5640 5641 5640 5640
5603 5603 5603 5602 5600 5595 5594 5596 5598 5600 5599 5598 5598 5598 5598 5597 5596 5598 5600 5599 5599 5598 5599 5601 5600 5600 5602 5605 5612 5618 5619 5621 5620 5620 5622 5621 5623 5625 5628 5630 5630 5631 5631
5599 5598 5597 5595 5592 5587 5585 5587 5590 5592 5590 5589 5589 5587 5588 5587 5581 5583 5589 5588 5588 5588 5586 5585 5584 5586 5588 5592 5597 5607 5610 5614 5613 5612 5613 5613 5614 5616 5618 5619 5620 5621 5622
5595 5593 5591 5590 5587 5584 5579 5580 5582 5589 5585 5585 5582 5581 5574 5573 5571 5572 5578 5578 5576 5576 5578 5580 5578 5579 5582 5584 5586 5589 5595 5598 5601 5602 5603 5605 5606 5608 5608 5609 5611 5613 5614